Change the Weather History Date:

Monday, July 1, 2013

  Actual Average Record
Temperature  
Mean Temperature 80 °F -  
Max Temperature 100 °F 86 °F 100 °F (2013)
Min Temperature 59 °F 50 °F 40 °F (1968)
Cooling Degree Days 14    
Growing Degree Days 30 (Base 50)    
Moisture  
Dew Point 47 °F    
Average Humidity 34    
Maximum Humidity 78    
Minimum Humidity 12    
Precipitation  
Precipitation 0.00 in - - ()
Sea Level Pressure  
Sea Level Pressure 29.93 in    
Wind  
Wind Speed 5 mph (NNW)    
Max Wind Speed 13 mph    
Max Gust Speed 17 mph    
Visibility 10 miles    
Events      
Averages and records for this station are not official NWS values.
T = Trace of Precipitation, MM = Missing Value Source: NWS Daily Summary

Daily Weather History Graph

Daily Weather History Graph

Search for Another Location

Airport or City:

Trip Planner

Search our weather history database for the weather conditions in past years. The results will help you decide how hot, cold, wet, or windy it might be!

Date:

Astronomy

Jul. 01, 2013 Rise Set
Actual Time 5:56 AM MDT 9:06 PM MDT
Civil Twilight 5:22 AM MDT 9:40 PM MDT
Nautical Twilight 4:38 AM MDT 10:23 PM MDT
Astronomical Twilight 3:46 AM MDT 11:15 PM MDT
Moon 1:31 AM MDT (7/1) 3:22 PM MDT (7/1)
Length of Visible Light 16h 17m
Length of Day
15h 09m
Waning Crescent, 35% of the Moon is Illuminated
Jul 1
Waning Crescent
Jul 8
New
Jul 15
First Quarter
Jul 22
Full
Jul 29
Last Quarter

Hourly Weather History & Observations

Time (MDT) Temp. Heat Index Dew Point Humidity Pressure Visibility Wind Dir Wind Speed Gust Speed Precip Events Conditions
12:51 AM 62.1 °F - 51.1 °F 67% 29.93 in 10.0 mi Calm Calm - N/A   Clear
1:51 AM 82.0 °F - 42.1 °F 24% 29.89 in 10.0 mi SSW 9.2 mph 17.3 mph N/A   Clear
2:51 AM 84.9 °F - 39.9 °F 20% 29.88 in 10.0 mi SSW 10.4 mph 16.1 mph N/A   Clear
3:51 AM 66.0 °F - 44.1 °F 45% 29.93 in 10.0 mi Calm Calm - N/A   Clear
4:51 AM 64.9 °F - 44.1 °F 47% 29.94 in 10.0 mi Calm Calm - N/A   Clear
5:51 AM 62.1 °F - 45.0 °F 53% 29.96 in 10.0 mi Calm Calm - N/A   Clear
6:51 AM 59.0 °F - 52.0 °F 78% 30.00 in 10.0 mi North 4.6 mph - N/A   Clear
7:51 AM 71.1 °F - 46.9 °F 42% 30.00 in 10.0 mi Calm Calm - N/A   Clear
8:51 AM 73.9 °F - 48.0 °F 40% 30.01 in 10.0 mi NNW 4.6 mph - N/A   Clear
9:51 AM 80.1 °F - 46.0 °F 30% 30.00 in 10.0 mi NNE 6.9 mph - N/A   Clear
10:51 AM 84.0 °F - 50.0 °F 31% 29.99 in - Variable 5.8 mph - N/A   Clear
11:51 AM 88.0 °F - 52.0 °F 29% 29.97 in - North - - N/A   Clear
12:51 PM 91.9 °F - 48.9 °F 23% 29.97 in 10.0 mi Variable 5.8 mph - N/A   Clear
1:51 PM 96.1 °F - 46.9 °F 19% 29.91 in 10.0 mi NW 6.9 mph - N/A   Clear
2:51 PM 97.0 °F - 41.0 °F 14% 29.88 in 10.0 mi Variable 3.5 mph - N/A   Clear
3:51 PM 99.0 °F - 39.0 °F 13% 29.89 in 10.0 mi North 10.4 mph - N/A   Clear
4:51 PM 100.0 °F - 37.9 °F 12% 29.87 in 10.0 mi NNW 12.7 mph - N/A   Clear
5:51 PM 99.0 °F - 44.1 °F 15% 29.86 in 10.0 mi NNW 10.4 mph - N/A   Clear
6:51 PM 90.0 °F 87.9 °F 55.0 °F 30% 29.88 in 10.0 mi North 8.1 mph - N/A   Clear
7:51 PM 90.0 °F - 46.9 °F 23% 29.87 in 10.0 mi NNE 9.2 mph - N/A   Clear
8:51 PM 80.1 °F - 46.0 °F 30% 29.89 in 10.0 mi North 9.2 mph - N/A   Clear
9:51 PM 71.1 °F - 53.1 °F 53% 29.92 in 10.0 mi NNW 9.2 mph - N/A   Clear
10:51 PM 75.0 °F - 48.0 °F 38% 29.93 in 10.0 mi SSW 4.6 mph - N/A   Clear
11:51 PM 70.0 °F - 51.1 °F 51% 29.95 in 10.0 mi NE 3.5 mph - N/A   Clear